WQ201 NZCH-YBCG

Flight info

Callsign WQ201
Flight time 2h 14m
Altitude 24000
Route BAVEM7P KABKA L503 RUNOD/N0223F280 L503 SIFRA N584 LAMSI LAMSI3A
Aircraft BE9L/L-VGD/C

Departure

Time 2026-04-28 08:11
Airport Christchurch International Airport (NZCH)

Arrival

Time 2026-04-28 10:26
Airport Gold Coast Airport (YBCG)
Time Latitude Longitude Altitude Speed Heading
2026-04-28 07:56 -43.49025 172.53854 102 ft 0 kts 84°
2026-04-28 08:05 -43.49028 172.53867 102 ft 4 kts 146°
2026-04-28 08:05 -43.49050 172.53842 102 ft 8 kts 235°
2026-04-28 08:06 -43.49034 172.53758 102 ft 15 kts 302°
2026-04-28 08:06 -43.48977 172.53661 102 ft 0 kts 311°
2026-04-28 08:06 -43.48971 172.53650 102 ft 6 kts 306°
2026-04-28 08:06 -43.48924 172.53555 104 ft 16 kts 264°
2026-04-28 08:07 -43.49031 172.53406 105 ft 28 kts 221°
2026-04-28 08:07 -43.49204 172.53206 109 ft 37 kts 218°
2026-04-28 08:07 -43.49405 172.52972 116 ft 33 kts 223°
2026-04-28 08:07 -43.49508 172.52753 120 ft 23 kts 273°
2026-04-28 08:08 -43.49505 172.52693 121 ft 0 kts 276°
2026-04-28 08:09 -43.49497 172.52641 122 ft 13 kts 293°
2026-04-28 08:09 -43.49445 172.52582 122 ft 7 kts 21°
2026-04-28 08:10 -43.49433 172.52594 122 ft 0 kts 41°
2026-04-28 08:11 -43.49353 172.52689 119 ft 51 kts 39°
2026-04-28 08:11 -43.48906 172.53212 115 ft 108 kts 40°
2026-04-28 08:11 -43.48420 172.53787 435 ft 105 kts 37°
2026-04-28 08:11 -43.47823 172.54457 810 ft 114 kts 38°
2026-04-28 08:12 -43.47189 172.55142 1230 ft 118 kts 26°
2026-04-28 08:12 -43.46416 172.55572 1652 ft 122 kts 20°
2026-04-28 08:12 -43.45642 172.56044 2062 ft 126 kts 22°
2026-04-28 08:12 -43.44858 172.56535 2467 ft 129 kts 22°
2026-04-28 08:13 -43.44092 172.57027 2854 ft 131 kts 22°
2026-04-28 08:13 -43.43267 172.57564 3263 ft 133 kts 22°
2026-04-28 08:13 -43.42436 172.58104 3665 ft 134 kts 23°
2026-04-28 08:13 -43.41598 172.58653 4068 ft 135 kts 22°
2026-04-28 08:14 -43.40755 172.59204 4470 ft 135 kts 23°
2026-04-28 08:14 -43.39913 172.59757 4872 ft 135 kts 24°
2026-04-28 08:14 -43.39074 172.60304 5268 ft 134 kts 24°
2026-04-28 08:14 -43.38239 172.60852 5666 ft 133 kts 24°
2026-04-28 08:15 -43.37374 172.61069 6095 ft 126 kts 344°
2026-04-28 08:15 -43.36730 172.60353 6509 ft 123 kts 298°
2026-04-28 08:15 -43.36385 172.59308 6912 ft 120 kts 298°
2026-04-28 08:15 -43.36018 172.58292 7266 ft 120 kts 298°
2026-04-28 08:16 -43.35652 172.57257 7580 ft 123 kts 297°
2026-04-28 08:16 -43.35276 172.56197 7879 ft 126 kts 297°
2026-04-28 08:16 -43.34885 172.55093 8190 ft 129 kts 297°
2026-04-28 08:16 -43.34495 172.53992 8497 ft 131 kts 297°
2026-04-28 08:17 -43.34094 172.52852 8805 ft 133 kts 297°
2026-04-28 08:17 -43.33689 172.51710 9106 ft 134 kts 296°
2026-04-28 08:17 -43.33282 172.50565 9399 ft 135 kts 296°
2026-04-28 08:17 -43.32872 172.49403 9697 ft 136 kts 296°
2026-04-28 08:18 -43.32457 172.48235 9988 ft 137 kts 296°
2026-04-28 08:18 -43.32041 172.47058 10273 ft 137 kts 296°
2026-04-28 08:18 -43.31629 172.45897 10572 ft 135 kts 296°
2026-04-28 08:18 -43.31221 172.44746 10905 ft 132 kts 295°
2026-04-28 08:19 -43.30825 172.43631 11217 ft 129 kts 295°
2026-04-28 08:19 -43.30074 172.41511 11709 ft 131 kts 295°
2026-04-28 08:19 -43.29268 172.39244 12198 ft 132 kts 295°
2026-04-28 08:19 -43.28466 172.36993 12697 ft 133 kts 295°
2026-04-28 08:20 -43.27647 172.34686 13161 ft 134 kts 295°
2026-04-28 08:20 -43.26649 172.32538 13600 ft 137 kts 310°
2026-04-28 08:20 -43.25353 172.30391 14012 ft 139 kts 305°
2026-04-28 08:20 -43.24764 172.29327 14260 ft 143 kts 306°
2026-04-28 08:21 -43.24157 172.28250 14566 ft 145 kts 306°
2026-04-28 08:21 -43.23540 172.27153 14898 ft 146 kts 306°
2026-04-28 08:21 -43.22910 172.26041 15247 ft 147 kts 306°
2026-04-28 08:21 -43.22286 172.24937 15589 ft 148 kts 307°
2026-04-28 08:22 -43.21655 172.23819 15930 ft 149 kts 307°
2026-04-28 08:22 -43.21024 172.22707 16266 ft 149 kts 306°
2026-04-28 08:22 -43.20392 172.21588 16595 ft 149 kts 307°
2026-04-28 08:22 -43.19758 172.20468 16898 ft 151 kts 306°
2026-04-28 08:23 -43.19114 172.19334 17194 ft 152 kts 306°
2026-04-28 08:23 -43.18460 172.18176 17492 ft 153 kts 306°
2026-04-28 08:23 -43.17805 172.17021 17776 ft 155 kts 306°
2026-04-28 08:23 -43.17144 172.15855 18061 ft 156 kts 306°
2026-04-28 08:24 -43.16477 172.14681 18351 ft 157 kts 306°
2026-04-28 08:24 -43.15810 172.13506 18650 ft 157 kts 306°
2026-04-28 08:24 -43.15142 172.12324 18950 ft 157 kts 307°
2026-04-28 08:24 -43.14474 172.11153 19235 ft 157 kts 306°
2026-04-28 08:25 -43.13810 172.09978 19511 ft 157 kts 307°
2026-04-28 08:25 -43.13138 172.08801 19763 ft 158 kts 307°
2026-04-28 08:25 -43.12461 172.07608 20015 ft 160 kts 307°
2026-04-28 08:26 -43.11092 172.05202 20513 ft 161 kts 307°
2026-04-28 08:26 -43.10390 172.03970 20738 ft 164 kts 306°
2026-04-28 08:26 -43.09685 172.02733 20927 ft 168 kts 306°
2026-04-28 08:26 -43.08963 172.01466 21135 ft 170 kts 306°
2026-04-28 08:27 -43.08234 172.00189 21338 ft 172 kts 306°
2026-04-28 08:27 -43.07492 171.98888 21546 ft 174 kts 306°
2026-04-28 08:27 -43.06740 171.97568 21750 ft 175 kts 306°
2026-04-28 08:27 -43.05993 171.96258 21954 ft 177 kts 306°
2026-04-28 08:28 -43.05231 171.94920 22160 ft 178 kts 306°
2026-04-28 08:28 -43.04476 171.93600 22356 ft 179 kts 307°
2026-04-28 08:28 -43.03707 171.92255 22555 ft 179 kts 306°
2026-04-28 08:28 -43.02940 171.90913 22755 ft 179 kts 306°
2026-04-28 08:29 -43.02166 171.89565 22953 ft 179 kts 306°
2026-04-28 08:29 -43.00899 171.87350 23293 ft 179 kts 306°
2026-04-28 08:29 -42.99350 171.84647 23690 ft 179 kts 306°
2026-04-28 08:29 -42.97831 171.82001 24080 ft 178 kts 306°
2026-04-28 08:30 -42.96523 171.79719 24308 ft 184 kts 306°
2026-04-28 08:30 -42.95713 171.78302 24305 ft 193 kts 306°
2026-04-28 08:30 -42.94876 171.76843 24309 ft 200 kts 306°
2026-04-28 08:30 -42.94002 171.75325 24307 ft 207 kts 306°
2026-04-28 08:31 -42.93106 171.73766 24307 ft 213 kts 306°
2026-04-28 08:31 -42.92171 171.72141 24304 ft 218 kts 306°
2026-04-28 08:31 -42.91221 171.70496 24305 ft 223 kts 306°
2026-04-28 08:31 -42.90271 171.68848 24310 ft 226 kts 306°
2026-04-28 08:32 -42.89289 171.67142 24305 ft 229 kts 306°
2026-04-28 08:32 -42.88301 171.65428 24304 ft 232 kts 306°
2026-04-28 08:32 -42.87300 171.63704 24305 ft 235 kts 309°
2026-04-28 08:32 -42.86147 171.62082 24306 ft 237 kts 314°
2026-04-28 08:33 -42.84985 171.60490 24304 ft 238 kts 313°
2026-04-28 08:33 -42.83808 171.58881 24306 ft 240 kts 313°
2026-04-28 08:33 -42.82630 171.57269 24306 ft 241 kts 313°
2026-04-28 08:33 -42.81453 171.55661 24307 ft 241 kts 313°
2026-04-28 08:34 -42.80269 171.54048 24310 ft 241 kts 313°
2026-04-28 08:34 -42.78533 171.51674 24313 ft 242 kts 313°
2026-04-28 08:34 -42.76140 171.48407 24319 ft 242 kts 313°
2026-04-28 08:34 -42.73768 171.45180 24318 ft 242 kts 313°
2026-04-28 08:35 -42.70110 171.40196 24325 ft 242 kts 313°
2026-04-28 08:35 -42.65393 171.33801 24318 ft 243 kts 314°
2026-04-28 08:35 -42.60585 171.27281 24323 ft 243 kts 314°
2026-04-28 08:35 -42.55792 171.20805 24327 ft 244 kts 314°
2026-04-28 08:36 -42.51040 171.14400 24326 ft 244 kts 314°
2026-04-28 08:36 -42.46213 171.07910 24324 ft 244 kts 314°
2026-04-28 08:36 -42.41379 171.01419 24325 ft 244 kts 314°
2026-04-28 08:36 -42.36540 170.94940 24329 ft 245 kts 314°
2026-04-28 08:37 -42.31692 170.88467 24327 ft 245 kts 314°
2026-04-28 08:37 -42.26855 170.82018 24329 ft 245 kts 314°
2026-04-28 08:37 -42.21990 170.75548 24329 ft 245 kts 314°
2026-04-28 08:37 -42.17152 170.69132 24328 ft 246 kts 314°
2026-04-28 08:38 -42.12280 170.62676 24331 ft 246 kts 314°
2026-04-28 08:38 -42.07411 170.56247 24334 ft 246 kts 314°
2026-04-28 08:38 -42.04533 170.52452 24329 ft 246 kts 314°
2026-04-28 08:38 -42.03318 170.50853 24330 ft 246 kts 314°
2026-04-28 08:39 -42.02084 170.49228 24328 ft 247 kts 315°
2026-04-28 08:39 -42.00554 170.47215 24329 ft 247 kts 314°
2026-04-28 08:39 -41.98114 170.44012 24330 ft 247 kts 314°
2026-04-28 08:39 -41.95644 170.40768 24335 ft 248 kts 314°
2026-04-28 08:40 -41.93203 170.37567 24330 ft 248 kts 314°
2026-04-28 08:40 -41.90733 170.34329 24332 ft 249 kts 315°
2026-04-28 08:40 -41.88251 170.31082 24326 ft 249 kts 315°
2026-04-28 08:40 -41.85747 170.27811 24326 ft 250 kts 315°
2026-04-28 08:41 -41.83284 170.24593 24327 ft 250 kts 315°
2026-04-28 08:41 -41.80782 170.21332 24331 ft 250 kts 315°
2026-04-28 08:41 -41.78269 170.18062 24325 ft 251 kts 315°
2026-04-28 08:41 -41.75780 170.14821 24330 ft 250 kts 315°
2026-04-28 08:42 -41.73272 170.11563 24331 ft 251 kts 315°
2026-04-28 08:42 -41.70764 170.08345 24332 ft 251 kts 317°
2026-04-28 08:42 -41.68385 170.04993 24339 ft 250 kts 309°
2026-04-28 08:42 -41.66097 170.01553 24337 ft 250 kts 312°
2026-04-28 08:43 -41.63748 169.98149 24334 ft 250 kts 312°
2026-04-28 08:43 -41.61364 169.94727 24334 ft 250 kts 312°
2026-04-28 08:43 -41.59006 169.91348 24337 ft 250 kts 312°
2026-04-28 08:43 -41.56624 169.87938 24337 ft 250 kts 312°
2026-04-28 08:44 -41.54280 169.84590 24338 ft 250 kts 312°
2026-04-28 08:44 -41.51888 169.81175 24338 ft 250 kts 312°
2026-04-28 08:44 -41.49528 169.77811 24340 ft 250 kts 312°
2026-04-28 08:44 -41.47149 169.74423 24344 ft 250 kts 312°
2026-04-28 08:45 -41.44780 169.71054 24341 ft 251 kts 312°
2026-04-28 08:45 -41.42399 169.67673 24343 ft 251 kts 312°
2026-04-28 08:45 -41.40005 169.64273 24345 ft 251 kts 312°
2026-04-28 08:45 -41.37630 169.60906 24344 ft 251 kts 312°
2026-04-28 08:46 -41.35230 169.57510 24343 ft 251 kts 312°
2026-04-28 08:46 -41.32862 169.54161 24347 ft 251 kts 312°
2026-04-28 08:46 -41.30459 169.50771 24345 ft 251 kts 312°
2026-04-28 08:46 -41.28058 169.47380 24346 ft 251 kts 312°
2026-04-28 08:47 -41.25677 169.44023 24346 ft 251 kts 312°
2026-04-28 08:47 -41.23302 169.40685 24346 ft 251 kts 312°
2026-04-28 08:47 -41.20905 169.37311 24349 ft 251 kts 311°
2026-04-28 08:47 -41.18504 169.33939 24347 ft 251 kts 312°
2026-04-28 08:48 -41.16105 169.30572 24347 ft 251 kts 312°
2026-04-28 08:48 -41.12940 169.26141 24350 ft 251 kts 312°
2026-04-28 08:48 -41.08175 169.19470 24352 ft 252 kts 313°
2026-04-28 08:48 -41.03336 169.12724 24351 ft 252 kts 313°
2026-04-28 08:49 -40.98558 169.06073 24354 ft 252 kts 313°
2026-04-28 08:49 -40.93701 168.99332 24361 ft 252 kts 313°
2026-04-28 08:49 -40.88830 168.92580 24365 ft 252 kts 312°
2026-04-28 08:49 -40.83986 168.85893 24365 ft 252 kts 312°
2026-04-28 08:50 -40.79180 168.79250 24365 ft 252 kts 312°
2026-04-28 08:50 -40.74269 168.72498 24362 ft 252 kts 312°
2026-04-28 08:50 -40.69428 168.65857 24363 ft 252 kts 311°
2026-04-28 08:50 -40.65709 168.60753 24357 ft 252 kts 311°
2026-04-28 08:51 -40.63300 168.57448 24354 ft 252 kts 311°
2026-04-28 08:51 -40.60875 168.54140 24360 ft 251 kts 311°
2026-04-28 08:51 -40.58445 168.50818 24352 ft 251 kts 311°
2026-04-28 08:51 -40.56039 168.47534 24356 ft 251 kts 311°
2026-04-28 08:52 -40.53619 168.44241 24355 ft 250 kts 311°
2026-04-28 08:52 -40.51200 168.40945 24356 ft 250 kts 311°
2026-04-28 08:52 -40.48788 168.37666 24358 ft 250 kts 311°
2026-04-28 08:52 -40.46379 168.34396 24357 ft 250 kts 312°
2026-04-28 08:53 -40.43967 168.31126 24365 ft 249 kts 311°
2026-04-28 08:53 -40.41565 168.27870 24363 ft 249 kts 311°
2026-04-28 08:53 -40.39157 168.24612 24361 ft 248 kts 311°
2026-04-28 08:53 -40.36766 168.21373 24360 ft 248 kts 311°
2026-04-28 08:54 -40.34337 168.18097 24370 ft 247 kts 311°
2026-04-28 08:54 -40.31967 168.14899 24364 ft 247 kts 311°
2026-04-28 08:54 -40.29567 168.11664 24364 ft 246 kts 311°
2026-04-28 08:54 -40.27186 168.08458 24361 ft 246 kts 311°
2026-04-28 08:55 -40.24821 168.05280 24368 ft 245 kts 311°
2026-04-28 08:55 -40.22446 168.02087 24363 ft 244 kts 311°
2026-04-28 08:55 -40.20082 167.98918 24368 ft 244 kts 311°
2026-04-28 08:55 -40.17729 167.95761 24370 ft 244 kts 311°
2026-04-28 08:56 -40.15338 167.92560 24363 ft 244 kts 312°
2026-04-28 08:56 -40.12987 167.89414 24373 ft 243 kts 312°
2026-04-28 08:56 -40.10623 167.86255 24378 ft 243 kts 312°
2026-04-28 08:56 -40.08258 167.83095 24374 ft 243 kts 312°
2026-04-28 08:57 -40.05891 167.79939 24373 ft 243 kts 312°
2026-04-28 08:57 -40.03529 167.76794 24374 ft 243 kts 312°
2026-04-28 08:57 -40.01163 167.73648 24377 ft 243 kts 312°
2026-04-28 08:57 -39.98795 167.70497 24375 ft 243 kts 312°
2026-04-28 08:58 -39.96428 167.67362 24377 ft 242 kts 312°
2026-04-28 08:58 -39.94068 167.64232 24379 ft 242 kts 312°
2026-04-28 08:58 -39.91718 167.61118 24383 ft 242 kts 312°
2026-04-28 08:58 -39.89354 167.57988 24386 ft 241 kts 312°
2026-04-28 08:59 -39.86995 167.54871 24387 ft 241 kts 311°
2026-04-28 08:59 -39.84647 167.51767 24385 ft 241 kts 311°
2026-04-28 08:59 -39.82309 167.48680 24385 ft 241 kts 311°
2026-04-28 08:59 -39.79948 167.45567 24386 ft 241 kts 311°
2026-04-28 09:00 -39.77605 167.42485 24385 ft 241 kts 311°
2026-04-28 09:00 -39.75270 167.39407 24387 ft 240 kts 312°
2026-04-28 09:00 -39.72929 167.36333 24388 ft 240 kts 312°
2026-04-28 09:00 -39.70554 167.33221 24394 ft 240 kts 313°
2026-04-28 09:01 -39.68203 167.30131 24394 ft 240 kts 313°
2026-04-28 09:01 -39.63859 167.24445 24397 ft 240 kts 313°
2026-04-28 09:01 -39.59164 167.18314 24402 ft 240 kts 313°
2026-04-28 09:01 -39.54458 167.12169 24402 ft 240 kts 313°
2026-04-28 09:02 -39.49691 167.05968 24398 ft 240 kts 312°
2026-04-28 09:02 -39.44990 166.99872 24399 ft 240 kts 312°
2026-04-28 09:02 -39.40259 166.93741 24398 ft 239 kts 312°
2026-04-28 09:02 -39.35619 166.87730 24399 ft 238 kts 312°
2026-04-28 09:03 -39.30942 166.81696 24399 ft 238 kts 312°
2026-04-28 09:03 -39.26270 166.75678 24402 ft 237 kts 312°
2026-04-28 09:03 -39.21611 166.69678 24397 ft 236 kts 312°
2026-04-28 09:03 -39.16943 166.63695 24406 ft 236 kts 312°
2026-04-28 09:04 -39.12273 166.57715 24405 ft 235 kts 312°
2026-04-28 09:04 -39.07709 166.51871 24401 ft 234 kts 312°
2026-04-28 09:04 -39.03067 166.45953 24404 ft 233 kts 312°
2026-04-28 09:04 -38.98446 166.40070 24402 ft 233 kts 312°
2026-04-28 09:05 -38.93871 166.34253 24399 ft 232 kts 313°
2026-04-28 09:05 -38.89257 166.28403 24412 ft 232 kts 313°
2026-04-28 09:05 -38.84684 166.22617 24411 ft 232 kts 313°
2026-04-28 09:05 -38.80089 166.16805 24409 ft 232 kts 313°
2026-04-28 09:06 -38.75451 166.10957 24412 ft 232 kts 313°
2026-04-28 09:06 -38.70827 166.05136 24407 ft 233 kts 313°
2026-04-28 09:06 -38.66184 165.99306 24408 ft 233 kts 313°
2026-04-28 09:06 -38.61604 165.93561 24409 ft 233 kts 313°
2026-04-28 09:07 -38.56945 165.87729 24406 ft 233 kts 313°
2026-04-28 09:07 -38.52269 165.81888 24408 ft 234 kts 313°
2026-04-28 09:07 -38.47620 165.76091 24408 ft 234 kts 313°
2026-04-28 09:07 -38.42990 165.70331 24409 ft 234 kts 313°
2026-04-28 09:08 -38.38284 165.64487 24408 ft 235 kts 313°
2026-04-28 09:08 -38.33603 165.58687 24407 ft 235 kts 313°
2026-04-28 09:08 -38.28887 165.52855 24408 ft 235 kts 313°
2026-04-28 09:08 -38.24205 165.47070 24408 ft 236 kts 313°
2026-04-28 09:09 -38.19484 165.41246 24406 ft 236 kts 313°
2026-04-28 09:09 -38.14771 165.35451 24407 ft 236 kts 314°
2026-04-28 09:09 -38.10038 165.29640 24415 ft 237 kts 314°
2026-04-28 09:09 -38.05311 165.23843 24414 ft 237 kts 314°
2026-04-28 09:10 -38.00595 165.18077 24413 ft 237 kts 314°
2026-04-28 09:10 -37.95787 165.12212 24414 ft 237 kts 314°
2026-04-28 09:10 -37.91025 165.06404 24411 ft 238 kts 314°
2026-04-28 09:10 -37.86303 165.00664 24411 ft 238 kts 314°
2026-04-28 09:11 -37.81496 164.94830 24406 ft 238 kts 314°
2026-04-28 09:11 -37.76703 164.89021 24407 ft 239 kts 314°
2026-04-28 09:11 -37.71941 164.83261 24404 ft 239 kts 314°
2026-04-28 09:11 -37.67109 164.77426 24406 ft 240 kts 314°
2026-04-28 09:12 -37.62249 164.71574 24409 ft 240 kts 314°
2026-04-28 09:12 -37.57373 164.65712 24410 ft 241 kts 314°
2026-04-28 09:12 -37.52548 164.59918 24409 ft 242 kts 314°
2026-04-28 09:12 -37.47679 164.54077 24408 ft 242 kts 315°
2026-04-28 09:13 -37.42751 164.48187 24409 ft 243 kts 315°
2026-04-28 09:13 -37.37834 164.42310 24410 ft 244 kts 315°
2026-04-28 09:13 -37.32884 164.36415 24411 ft 245 kts 316°
2026-04-28 09:13 -37.27950 164.30554 24408 ft 245 kts 317°
2026-04-28 09:14 -37.23000 164.24689 24411 ft 246 kts 317°
2026-04-28 09:14 -37.17985 164.18749 24412 ft 246 kts 317°
2026-04-28 09:14 -37.13018 164.12880 24411 ft 246 kts 317°
2026-04-28 09:14 -37.08041 164.07007 24412 ft 246 kts 317°
2026-04-28 09:15 -37.03035 164.01111 24411 ft 246 kts 316°
2026-04-28 09:15 -36.98040 163.95239 24411 ft 246 kts 316°
2026-04-28 09:15 -36.93056 163.89392 24410 ft 246 kts 316°
2026-04-28 09:15 -36.88065 163.83545 24409 ft 246 kts 316°
2026-04-28 09:16 -36.83051 163.77683 24403 ft 246 kts 317°
2026-04-28 09:16 -36.78056 163.71854 24405 ft 246 kts 317°
2026-04-28 09:16 -36.73056 163.66031 24400 ft 246 kts 317°
2026-04-28 09:16 -36.67985 163.60132 24394 ft 247 kts 317°
2026-04-28 09:17 -36.63016 163.54384 24394 ft 247 kts 317°
2026-04-28 09:17 -36.57982 163.48547 24391 ft 247 kts 317°
2026-04-28 09:17 -36.52966 163.42755 24396 ft 247 kts 317°
2026-04-28 09:17 -36.47878 163.36885 24396 ft 247 kts 317°
2026-04-28 09:18 -36.42848 163.31094 24392 ft 248 kts 318°
2026-04-28 09:18 -36.37783 163.25272 24398 ft 248 kts 318°
2026-04-28 09:18 -36.32742 163.19488 24401 ft 248 kts 318°
2026-04-28 09:18 -36.27619 163.13625 24410 ft 248 kts 318°
2026-04-28 09:19 -36.22589 163.07867 24410 ft 248 kts 318°
2026-04-28 09:19 -36.17511 163.02074 24413 ft 249 kts 319°
2026-04-28 09:19 -36.12367 162.96193 24411 ft 249 kts 318°
2026-04-28 09:19 -36.07421 162.90186 24414 ft 249 kts 318°
2026-04-28 09:20 -36.02395 162.84258 24411 ft 249 kts 317°
2026-04-28 09:20 -35.97445 162.78422 24411 ft 249 kts 318°
2026-04-28 09:20 -35.92428 162.72508 24412 ft 250 kts 317°
2026-04-28 09:20 -35.87383 162.66576 24408 ft 250 kts 317°
2026-04-28 09:21 -35.82317 162.60632 24411 ft 250 kts 318°
2026-04-28 09:21 -35.77232 162.54675 24410 ft 250 kts 318°
2026-04-28 09:21 -35.72222 162.48813 24405 ft 250 kts 317°
2026-04-28 09:21 -35.67111 162.42851 24403 ft 251 kts 317°
2026-04-28 09:22 -35.62036 162.36934 24400 ft 251 kts 318°
2026-04-28 09:22 -35.57003 162.31082 24389 ft 251 kts 319°
2026-04-28 09:22 -35.51895 162.25156 24391 ft 251 kts 319°
2026-04-28 09:22 -35.46846 162.19304 24388 ft 251 kts 319°
2026-04-28 09:23 -35.41786 162.13452 24389 ft 251 kts 319°
2026-04-28 09:23 -35.37523 162.08533 24389 ft 251 kts 319°
2026-04-28 09:23 -35.36261 162.07075 24389 ft 251 kts 319°
2026-04-28 09:23 -35.34993 162.05612 24389 ft 251 kts 319°
2026-04-28 09:24 -35.33713 162.04137 24389 ft 251 kts 319°
2026-04-28 09:24 -35.31608 162.01720 24390 ft 251 kts 319°
2026-04-28 09:24 -35.26487 161.95824 24388 ft 251 kts 319°
2026-04-28 09:24 -35.21420 161.90007 24391 ft 252 kts 319°
2026-04-28 09:25 -35.16260 161.84091 24389 ft 252 kts 318°
2026-04-28 09:25 -35.11158 161.78252 24384 ft 252 kts 319°
2026-04-28 09:25 -35.06038 161.72415 24388 ft 252 kts 319°
2026-04-28 09:25 -35.00930 161.66585 24388 ft 252 kts 319°
2026-04-28 09:26 -34.95748 161.60689 24385 ft 252 kts 319°
2026-04-28 09:26 -34.90664 161.54910 24378 ft 253 kts 319°
2026-04-28 09:26 -34.85468 161.49026 24381 ft 253 kts 319°
2026-04-28 09:26 -34.80349 161.43224 24373 ft 253 kts 319°
2026-04-28 09:27 -34.70021 161.31573 24365 ft 253 kts 319°
2026-04-28 09:27 -34.64843 161.25748 24363 ft 253 kts 319°
2026-04-28 09:27 -34.59657 161.19911 24359 ft 253 kts 319°
2026-04-28 09:28 -34.54515 161.14154 24361 ft 253 kts 319°
2026-04-28 09:28 -34.49341 161.08354 24358 ft 253 kts 319°
2026-04-28 09:28 -34.44171 161.02577 24358 ft 253 kts 319°
2026-04-28 09:28 -34.38971 160.96771 24356 ft 253 kts 319°
2026-04-28 09:29 -34.33837 160.91055 24354 ft 253 kts 319°
2026-04-28 09:29 -34.28617 160.85257 24356 ft 253 kts 319°
2026-04-28 09:29 -34.23399 160.79459 24358 ft 253 kts 319°
2026-04-28 09:29 -34.18224 160.73726 24353 ft 253 kts 319°
2026-04-28 09:30 -34.13013 160.67970 24356 ft 253 kts 319°
2026-04-28 09:30 -34.07835 160.62248 24352 ft 253 kts 319°
2026-04-28 09:30 -34.02585 160.56461 24353 ft 253 kts 319°
2026-04-28 09:30 -33.97415 160.50766 24349 ft 253 kts 319°
2026-04-28 09:31 -33.92169 160.45012 24351 ft 253 kts 319°
2026-04-28 09:31 -33.86979 160.39319 24352 ft 253 kts 319°
2026-04-28 09:31 -33.81757 160.33604 24344 ft 253 kts 320°
2026-04-28 09:31 -33.76478 160.27832 24337 ft 253 kts 320°
2026-04-28 09:32 -33.71249 160.22137 24342 ft 253 kts 320°
2026-04-28 09:32 -33.66050 160.16469 24341 ft 253 kts 320°
2026-04-28 09:32 -33.60894 160.10866 24341 ft 253 kts 320°
2026-04-28 09:32 -33.55638 160.05159 24335 ft 253 kts 320°
2026-04-28 09:33 -33.50365 159.99460 24340 ft 253 kts 320°
2026-04-28 09:33 -33.45140 159.93803 24340 ft 253 kts 320°
2026-04-28 09:33 -33.39969 159.88216 24339 ft 253 kts 319°
2026-04-28 09:33 -33.34712 159.82552 24337 ft 253 kts 319°
2026-04-28 09:34 -33.29405 159.76878 24341 ft 253 kts 319°
2026-04-28 09:34 -33.24234 159.71287 24337 ft 253 kts 319°
2026-04-28 09:34 -33.18551 159.65195 24338 ft 253 kts 319°
2026-04-28 09:34 -33.17229 159.63777 24330 ft 253 kts 320°
2026-04-28 09:35 -33.15921 159.62380 24336 ft 253 kts 320°
2026-04-28 09:35 -33.14609 159.60976 24333 ft 253 kts 319°
2026-04-28 09:35 -33.13300 159.59575 24333 ft 253 kts 319°
2026-04-28 09:35 -33.11984 159.58170 24332 ft 253 kts 319°
2026-04-28 09:36 -33.10677 159.56772 24335 ft 253 kts 319°
2026-04-28 09:36 -33.09372 159.55377 24334 ft 253 kts 319°
2026-04-28 09:36 -33.08067 159.53987 24333 ft 253 kts 319°
2026-04-28 09:36 -33.06749 159.52580 24329 ft 253 kts 319°
2026-04-28 09:37 -33.05426 159.51167 24329 ft 253 kts 319°
2026-04-28 09:37 -33.04107 159.49759 24328 ft 253 kts 320°
2026-04-28 09:37 -33.02799 159.48366 24328 ft 253 kts 319°
2026-04-28 09:37 -33.01494 159.46974 24331 ft 253 kts 319°
2026-04-28 09:38 -33.00166 159.45560 24333 ft 253 kts 319°
2026-04-28 09:38 -32.98857 159.44168 24336 ft 253 kts 319°
2026-04-28 09:38 -32.97556 159.42784 24342 ft 253 kts 319°
2026-04-28 09:38 -32.96238 159.41382 24344 ft 253 kts 319°
2026-04-28 09:39 -32.94659 159.39699 24348 ft 253 kts 319°
2026-04-28 09:39 -32.92033 159.36912 24345 ft 253 kts 319°
2026-04-28 09:39 -32.89391 159.34108 24343 ft 253 kts 320°
2026-04-28 09:39 -32.86787 159.31343 24343 ft 253 kts 320°
2026-04-28 09:40 -32.84164 159.28563 24342 ft 253 kts 320°
2026-04-28 09:40 -32.81529 159.25777 24340 ft 253 kts 320°
2026-04-28 09:40 -32.78885 159.22978 24344 ft 253 kts 319°
2026-04-28 09:40 -32.76280 159.20222 24338 ft 253 kts 319°
2026-04-28 09:41 -32.73630 159.17424 24335 ft 253 kts 319°
2026-04-28 09:41 -32.70996 159.14638 24332 ft 253 kts 320°
2026-04-28 09:41 -32.68364 159.11859 24335 ft 253 kts 320°
2026-04-28 09:41 -32.63672 159.06918 24341 ft 253 kts 320°
2026-04-28 09:42 -32.58394 159.01373 24334 ft 253 kts 320°
2026-04-28 09:42 -32.53134 158.95845 24329 ft 253 kts 320°
2026-04-28 09:42 -32.47850 158.90303 24330 ft 253 kts 320°
2026-04-28 09:42 -32.42551 158.84760 24330 ft 253 kts 320°
2026-04-28 09:43 -32.37286 158.79263 24320 ft 253 kts 320°
2026-04-28 09:43 -32.32021 158.73766 24320 ft 253 kts 320°
2026-04-28 09:43 -32.27673 158.69238 24315 ft 253 kts 320°
2026-04-28 09:43 -32.25031 158.66490 24319 ft 253 kts 319°
2026-04-28 09:44 -32.22375 158.63722 24318 ft 253 kts 319°
2026-04-28 09:44 -32.19725 158.60968 24316 ft 253 kts 320°
2026-04-28 09:44 -32.17078 158.58220 24311 ft 253 kts 320°
2026-04-28 09:44 -32.14460 158.55505 24311 ft 254 kts 320°
2026-04-28 09:45 -32.11805 158.52756 24310 ft 254 kts 320°
2026-04-28 09:45 -32.09157 158.50009 24315 ft 254 kts 320°
2026-04-28 09:45 -32.06480 158.47244 24310 ft 254 kts 320°
2026-04-28 09:45 -32.03837 158.44510 24303 ft 254 kts 320°
2026-04-28 09:46 -32.01161 158.41746 24307 ft 254 kts 320°
2026-04-28 09:46 -31.98520 158.39021 24312 ft 254 kts 320°
2026-04-28 09:46 -31.95839 158.36253 24310 ft 255 kts 320°
2026-04-28 09:46 -31.93172 158.33507 24301 ft 255 kts 320°
2026-04-28 09:47 -31.90512 158.30768 24304 ft 255 kts 320°
2026-04-28 09:47 -31.87876 158.28052 24304 ft 255 kts 320°
2026-04-28 09:47 -31.85188 158.25287 24299 ft 255 kts 320°
2026-04-28 09:47 -31.82527 158.22554 24302 ft 255 kts 320°
2026-04-28 09:48 -31.79848 158.19806 24301 ft 255 kts 320°
2026-04-28 09:48 -31.77188 158.17073 24303 ft 255 kts 320°
2026-04-28 09:48 -31.74516 158.14336 24304 ft 255 kts 320°
2026-04-28 09:48 -31.71865 158.11618 24303 ft 254 kts 320°
2026-04-28 09:49 -31.69176 158.08872 24304 ft 254 kts 320°
2026-04-28 09:49 -31.66258 158.05890 24298 ft 254 kts 320°
2026-04-28 09:49 -31.60972 158.00491 24302 ft 253 kts 320°
2026-04-28 09:49 -31.55605 157.95018 24298 ft 253 kts 319°
2026-04-28 09:50 -31.50255 157.89578 24305 ft 253 kts 319°
2026-04-28 09:50 -31.44982 157.84222 24297 ft 253 kts 319°
2026-04-28 09:50 -31.39666 157.78828 24293 ft 252 kts 318°
2026-04-28 09:50 -31.34346 157.73430 24291 ft 252 kts 318°
2026-04-28 09:51 -31.29096 157.68112 24296 ft 252 kts 318°
2026-04-28 09:51 -31.23780 157.62740 24289 ft 252 kts 318°
2026-04-28 09:51 -31.18455 157.57371 24292 ft 252 kts 319°
2026-04-28 09:51 -31.13180 157.52060 24287 ft 252 kts 319°
2026-04-28 09:52 -31.07824 157.46674 24291 ft 252 kts 319°
2026-04-28 09:52 -31.02559 157.41389 24287 ft 252 kts 319°
2026-04-28 09:52 -30.97227 157.36066 24288 ft 251 kts 320°
2026-04-28 09:52 -30.91928 157.30733 24287 ft 251 kts 319°
2026-04-28 09:53 -30.86604 157.25423 24286 ft 251 kts 319°
2026-04-28 09:53 -30.81306 157.20138 24281 ft 251 kts 320°
2026-04-28 09:53 -30.75937 157.14786 24286 ft 251 kts 320°
2026-04-28 09:53 -30.70661 157.09546 24280 ft 252 kts 320°
2026-04-28 09:54 -30.67564 157.06470 24285 ft 252 kts 319°
2026-04-28 09:54 -30.66222 157.05136 24285 ft 252 kts 319°
2026-04-28 09:54 -30.64901 157.03825 24286 ft 252 kts 319°
2026-04-28 09:54 -30.63569 157.02502 24286 ft 252 kts 319°
2026-04-28 09:55 -30.62187 157.01131 24285 ft 252 kts 319°
2026-04-28 09:55 -30.59136 156.98106 24283 ft 252 kts 319°
2026-04-28 09:55 -30.53772 156.92801 24287 ft 252 kts 319°
2026-04-28 09:55 -30.48407 156.87508 24295 ft 252 kts 318°
2026-04-28 09:56 -30.43090 156.82237 24284 ft 252 kts 319°
2026-04-28 09:56 -30.37772 156.77011 24280 ft 251 kts 318°
2026-04-28 09:56 -30.32425 156.71742 24295 ft 250 kts 318°
2026-04-28 09:56 -30.27146 156.66554 24286 ft 249 kts 318°
2026-04-28 09:57 -30.21854 156.61368 24276 ft 249 kts 318°
2026-04-28 09:57 -30.16530 156.56145 24280 ft 249 kts 318°
2026-04-28 09:57 -30.11277 156.51006 24281 ft 248 kts 318°
2026-04-28 09:57 -30.05935 156.45790 24280 ft 249 kts 318°
2026-04-28 09:58 -30.00681 156.40666 24282 ft 248 kts 318°
2026-04-28 09:58 -29.95345 156.35467 24281 ft 248 kts 318°
2026-04-28 09:58 -29.90055 156.30319 24282 ft 249 kts 318°
2026-04-28 09:58 -29.84805 156.25223 24274 ft 249 kts 318°
2026-04-28 09:59 -29.79485 156.20056 24277 ft 248 kts 317°
2026-04-28 09:59 -29.75409 156.13684 24272 ft 244 kts 296°
2026-04-28 09:59 -29.71347 156.07426 24209 ft 246 kts 307°
2026-04-28 09:59 -29.67193 156.01071 24158 ft 247 kts 306°
2026-04-28 10:00 -29.63053 155.94865 24121 ft 246 kts 305°
2026-04-28 10:00 -29.59713 155.89836 23947 ft 244 kts 306°
2026-04-28 10:00 -29.58689 155.88295 23798 ft 242 kts 306°
2026-04-28 10:00 -29.57671 155.86763 23551 ft 244 kts 306°
2026-04-28 10:01 -29.56636 155.85207 23306 ft 246 kts 306°
2026-04-28 10:01 -29.54801 155.82448 23003 ft 246 kts 306°
2026-04-28 10:01 -29.52749 155.79367 22756 ft 244 kts 306°
2026-04-28 10:01 -29.50684 155.76266 22540 ft 242 kts 306°
2026-04-28 10:02 -29.48635 155.73193 22309 ft 242 kts 306°
2026-04-28 10:02 -29.46580 155.70114 22088 ft 241 kts 306°
2026-04-28 10:02 -29.44552 155.67075 21905 ft 240 kts 306°
2026-04-28 10:02 -29.41436 155.62418 21666 ft 239 kts 306°
2026-04-28 10:03 -29.37388 155.56367 21274 ft 239 kts 306°
2026-04-28 10:03 -29.33316 155.50290 20982 ft 239 kts 306°
2026-04-28 10:03 -29.29283 155.44278 20706 ft 238 kts 306°
2026-04-28 10:03 -29.25261 155.38298 20479 ft 237 kts 307°
2026-04-28 10:04 -29.21225 155.32303 20247 ft 237 kts 307°
2026-04-28 10:04 -29.17209 155.26346 20015 ft 237 kts 307°
2026-04-28 10:04 -29.13196 155.20401 19822 ft 236 kts 308°
2026-04-28 10:04 -29.09172 155.14453 19664 ft 235 kts 308°
2026-04-28 10:05 -29.05167 155.08537 19542 ft 235 kts 308°
2026-04-28 10:05 -29.01607 155.03288 19444 ft 234 kts 308°
2026-04-28 10:05 -28.99629 155.00374 19367 ft 233 kts 308°
2026-04-28 10:05 -28.97627 154.97427 19299 ft 233 kts 308°
2026-04-28 10:06 -28.95641 154.94504 19223 ft 232 kts 308°
2026-04-28 10:06 -28.93651 154.91574 19059 ft 232 kts 308°
2026-04-28 10:06 -28.91679 154.88678 18844 ft 232 kts 308°
2026-04-28 10:06 -28.89711 154.85788 18636 ft 231 kts 308°
2026-04-28 10:07 -28.87723 154.82869 18350 ft 231 kts 308°
2026-04-28 10:07 -28.85766 154.79999 18060 ft 231 kts 308°
2026-04-28 10:07 -28.82517 154.75244 17639 ft 230 kts 308°
2026-04-28 10:07 -28.79034 154.70148 17264 ft 229 kts 308°
2026-04-28 10:08 -28.77087 154.67303 17040 ft 227 kts 308°
2026-04-28 10:08 -28.75140 154.64459 16744 ft 226 kts 308°
2026-04-28 10:08 -28.73213 154.61647 16459 ft 225 kts 308°
2026-04-28 10:08 -28.71282 154.58830 16183 ft 224 kts 308°
2026-04-28 10:09 -28.67946 154.53964 15717 ft 224 kts 308°
2026-04-28 10:09 -28.64171 154.48469 15266 ft 220 kts 308°
2026-04-28 10:09 -28.60393 154.42976 14672 ft 219 kts 308°
2026-04-28 10:09 -28.56664 154.37563 14106 ft 217 kts 307°
2026-04-28 10:10 -28.52948 154.32170 13550 ft 216 kts 308°
2026-04-28 10:10 -28.49006 154.26468 13029 ft 215 kts 308°
2026-04-28 10:10 -28.47153 154.23787 12768 ft 213 kts 308°
2026-04-28 10:10 -28.45336 154.21161 12451 ft 213 kts 307°
2026-04-28 10:11 -28.43497 154.18503 12116 ft 213 kts 307°
2026-04-28 10:11 -28.41646 154.15826 11793 ft 213 kts 307°
2026-04-28 10:11 -28.39836 154.13209 11484 ft 213 kts 307°
2026-04-28 10:11 -28.37583 154.09956 11113 ft 213 kts 307°
2026-04-28 10:12 -28.33950 154.04721 10592 ft 213 kts 307°
2026-04-28 10:12 -28.29647 153.98511 9997 ft 212 kts 306°
2026-04-28 10:12 -28.28736 153.97203 9853 ft 208 kts 306°
2026-04-28 10:12 -28.27842 153.95917 9526 ft 209 kts 306°
2026-04-28 10:13 -28.26933 153.94604 9089 ft 215 kts 307°
2026-04-28 10:13 -28.25982 153.93236 8563 ft 223 kts 307°
2026-04-28 10:13 -28.25026 153.91861 8037 ft 227 kts 308°
2026-04-28 10:13 -28.24036 153.90439 7499 ft 229 kts 308°
2026-04-28 10:14 -28.21853 153.87303 6326 ft 231 kts 308°
2026-04-28 10:14 -28.19428 153.83820 5248 ft 220 kts 309°
2026-04-28 10:14 -28.18528 153.82532 5244 ft 199 kts 309°
2026-04-28 10:14 -28.17700 153.81345 5238 ft 184 kts 309°
2026-04-28 10:15 -28.16936 153.80252 5254 ft 172 kts 309°
2026-04-28 10:15 -28.16177 153.79166 5001 ft 179 kts 309°
2026-04-28 10:15 -28.15414 153.78075 4949 ft 172 kts 309°
2026-04-28 10:15 -28.14687 153.77031 4945 ft 164 kts 309°
2026-04-28 10:16 -28.13996 153.76042 4912 ft 159 kts 309°
2026-04-28 10:16 -28.12138 153.73386 4549 ft 163 kts 309°
2026-04-28 10:16 -28.09944 153.70245 4135 ft 166 kts 309°
2026-04-28 10:16 -28.09219 153.69209 4004 ft 168 kts 309°
2026-04-28 10:17 -28.08502 153.68184 3953 ft 163 kts 309°
2026-04-28 10:17 -28.07813 153.67198 3940 ft 157 kts 310°
2026-04-28 10:17 -28.07141 153.66237 3932 ft 152 kts 310°
2026-04-28 10:17 -28.06487 153.65302 3926 ft 148 kts 310°
2026-04-28 10:18 -28.05858 153.64404 3920 ft 145 kts 310°
2026-04-28 10:18 -28.03884 153.61589 3907 ft 143 kts 310°
2026-04-28 10:18 -28.02477 153.59580 3903 ft 140 kts 310°
2026-04-28 10:18 -28.01875 153.58691 3907 ft 145 kts 300°
2026-04-28 10:19 -28.01682 153.57556 3941 ft 152 kts 257°
2026-04-28 10:19 -28.01871 153.56378 3945 ft 151 kts 259°
2026-04-28 10:19 -28.01977 153.55162 3744 ft 163 kts 262°
2026-04-28 10:19 -28.02045 153.53822 3472 ft 175 kts 264°
2026-04-28 10:20 -28.02089 153.52406 3202 ft 184 kts 265°
2026-04-28 10:20 -28.02118 153.50949 2930 ft 189 kts 266°
2026-04-28 10:20 -28.02149 153.49469 2751 ft 187 kts 266°
2026-04-28 10:20 -28.02305 153.48039 2594 ft 180 kts 243°
2026-04-28 10:21 -28.03136 153.47070 2416 ft 168 kts 198°
2026-04-28 10:21 -28.04237 153.46919 2286 ft 158 kts 174°
2026-04-28 10:21 -28.05292 153.46893 2219 ft 139 kts 176°
2026-04-28 10:21 -28.06196 153.46880 2004 ft 122 kts 174°
2026-04-28 10:22 -28.07019 153.46872 1785 ft 114 kts 174°
2026-04-28 10:22 -28.07795 153.46864 1578 ft 110 kts 174°
2026-04-28 10:22 -28.08555 153.46861 1400 ft 106 kts 175°
2026-04-28 10:22 -28.09291 153.46854 1257 ft 102 kts 176°
2026-04-28 10:23 -28.09970 153.46845 1208 ft 94 kts 176°
2026-04-28 10:23 -28.10606 153.46915 1196 ft 90 kts 154°
2026-04-28 10:23 -28.11172 153.47249 1150 ft 93 kts 151°
2026-04-28 10:23 -28.11766 153.47607 1005 ft 102 kts 149°
2026-04-28 10:24 -28.12413 153.48016 725 ft 109 kts 150°
2026-04-28 10:24 -28.13073 153.48436 461 ft 110 kts 151°
2026-04-28 10:24 -28.13720 153.48848 343 ft 100 kts 151°
2026-04-28 10:24 -28.14294 153.49214 315 ft 90 kts 151°
2026-04-28 10:25 -28.14839 153.49559 237 ft 88 kts 151°
2026-04-28 10:25 -28.15367 153.49902 158 ft 87 kts 153°
2026-04-28 10:25 -28.15912 153.50241 27 ft 86 kts 154°
2026-04-28 10:25 -28.16349 153.50514 20 ft 56 kts 150°
2026-04-28 10:26 -28.16730 153.50749 17 ft 64 kts 149°
2026-04-28 10:26 -28.17016 153.50940 17 ft 33 kts 152°
2026-04-28 10:26 -28.17185 153.51024 17 ft 19 kts 139°
2026-04-28 10:26 -28.17263 153.51090 17 ft 11 kts 153°
2026-04-28 10:27 -28.17344 153.51149 17 ft 26 kts 148°
2026-04-28 10:27 -28.17444 153.51298 17 ft 22 kts 79°
2026-04-28 10:27 -28.17360 153.51369 20 ft 15 kts 327°
2026-04-28 10:27 -28.17241 153.51296 20 ft 32 kts 333°
2026-04-28 10:28 -28.17073 153.51262 19 ft 21 kts 12°
2026-04-28 10:28 -28.16950 153.51233 19 ft 16 kts 329°
2026-04-28 10:28 -28.16826 153.51134 17 ft 28 kts 317°
2026-04-28 10:29 -28.16516 153.50938 19 ft 24 kts 333°
2026-04-28 10:29 -28.16419 153.51013 20 ft 16 kts 60°
2026-04-28 10:29 -28.16368 153.51114 20 ft 12 kts 64°
2026-04-28 10:29 -28.16398 153.51163 20 ft 5 kts 150°
2026-04-28 10:30 -28.16422 153.51178 20 ft 0 kts 150°
2026-04-28 10:30 -28.16423 153.51180 20 ft 0 kts 151°